Lincoln, IL

1:15 PM CST on December 14, 2017 (GMT -0600)
Lincoln

Weather History for KAAA - March, 2013

Change the Weather History Date:

Saturday, March 9, 2013

  Actual Average (KSPI) Record (KSPI)
Temperature  
Mean Temperature 46 °F -  
Max Temperature 54 °F 48 °F 75 °F (1918)
Min Temperature 38 °F 26 °F 6 °F (1969)
Degree Days  
Heating Degree Days 19    
Moisture  
Dew Point 37 °F    
Average Humidity 75    
Maximum Humidity 85    
Minimum Humidity 61    
Precipitation  
Precipitation 0.03 in - - ()
Sea Level Pressure  
Sea Level Pressure 30.02 in    
Wind  
Wind Speed 10 mph (SSE)    
Max Wind Speed 17 mph    
Max Gust Speed 26 mph    
Visibility 10 miles    
Events Rain , Thunderstorm    
Averages and records for this station are not official NWS values.
T = Trace of Precipitation, MM = Missing Value Source: NWS Daily Summary

Daily Weather History Graph

Daily Weather History Graph

Search for Another Location

Airport or City:

Trip Planner

Search our weather history database for the weather conditions in past years. The results will help you decide how hot, cold, wet, or windy it might be!

Date:

Astronomy

Mar. 09, 2013 Rise Set
Actual Time 6:18 AM CST 5:58 PM CST
Civil Twilight 5:50 AM CST 6:25 PM CST
Nautical Twilight 5:19 AM CST 6:56 PM CST
Astronomical Twilight 4:47 AM CST 7:28 PM CST
Moon 4:42 AM CST (3/9) 4:00 PM CST (3/9)
Length of Visible Light 12h 34m
Length of Day
11h 40m
Waning Crescent, 5% of the Moon is Illuminated
Mar 9
Waning Crescent
Mar 11
New
Mar 19
First Quarter
Mar 27
Full
Apr 2
Last Quarter

Hourly Weather History & Observations

Time (CST) Temp. Windchill Dew Point Humidity Pressure Visibility Wind Dir Wind Speed Gust Speed Precip Events Conditions
12:15 AM 38.3 °F 32.5 °F 33.8 °F 84% 30.24 in 7.0 mi SE 8.1 mph - N/A Rain Light Rain
12:35 AM 38.3 °F 33.2 °F 34.2 °F 85% 30.23 in 7.0 mi SE 6.9 mph - N/A Rain Light Rain
12:55 AM 38.1 °F 33.7 °F 34.0 °F 85% 30.22 in 10.0 mi ESE 5.8 mph - N/A   Light Drizzle
1:15 AM 38.3 °F 32.5 °F 34.2 °F 85% 30.22 in 10.0 mi ESE 8.1 mph - N/A   Mostly Cloudy
1:35 AM 38.5 °F 32.7 °F 34.2 °F 84% 30.21 in 10.0 mi SE 8.1 mph - N/A   Overcast
1:55 AM 38.5 °F 33.4 °F 34.2 °F 84% 30.20 in 10.0 mi ESE 6.9 mph - N/A   Overcast
2:15 AM 38.3 °F 33.2 °F 34.2 °F 85% 30.19 in 10.0 mi ESE 6.9 mph - N/A   Overcast
2:35 AM 38.5 °F 32.7 °F 34.0 °F 84% 30.19 in 10.0 mi SE 8.1 mph - N/A   Overcast
2:55 AM 38.5 °F 31.6 °F 33.8 °F 83% 30.19 in 10.0 mi SE 10.4 mph - N/A   Overcast
3:15 AM 38.5 °F 31.6 °F 33.8 °F 83% 30.18 in 10.0 mi SE 10.4 mph - N/A   Overcast
3:35 AM 38.3 °F 32.5 °F 34.0 °F 84% 30.18 in 10.0 mi SE 8.1 mph - N/A Rain Light Rain
3:55 AM 38.3 °F 33.9 °F 34.2 °F 85% 30.17 in 10.0 mi SE 5.8 mph - N/A Rain Light Rain
4:15 AM 38.5 °F 33.4 °F 34.0 °F 84% 30.17 in 10.0 mi SE 6.9 mph - N/A   Mostly Cloudy
4:35 AM 39.2 °F 32.5 °F 33.1 °F 79% 30.16 in 10.0 mi SE 10.4 mph - N/A   Mostly Cloudy
4:55 AM 39.4 °F 33.2 °F 32.9 °F 78% 30.17 in 10.0 mi SE 9.2 mph - N/A   Scattered Clouds
5:15 AM 39.4 °F 34.5 °F 33.1 °F 78% 30.18 in 10.0 mi SSE 6.9 mph - N/A   Scattered Clouds
5:35 AM 39.0 °F 34.0 °F 33.1 °F 79% 30.17 in 10.0 mi SE 6.9 mph - N/A   Clear
5:55 AM 38.7 °F 33.6 °F 32.7 °F 79% 30.17 in 10.0 mi SE 6.9 mph - N/A   Clear
6:15 AM 38.8 °F 33.8 °F 32.4 °F 78% 30.17 in 10.0 mi SE 6.9 mph - N/A   Mostly Cloudy
6:35 AM 39.4 °F 34.5 °F 32.4 °F 76% 30.17 in 10.0 mi SE 6.9 mph - N/A   Overcast
6:55 AM 39.6 °F 33.5 °F 32.7 °F 76% 30.17 in 10.0 mi SSE 9.2 mph - N/A   Overcast
7:15 AM 39.2 °F 34.2 °F 33.1 °F 79% 30.18 in 10.0 mi SSE 6.9 mph - N/A   Overcast
7:35 AM 39.6 °F 33.5 °F 33.3 °F 78% 30.17 in 10.0 mi SSE 9.2 mph - N/A   Overcast
7:55 AM 39.7 °F 31.5 °F 32.9 °F 77% 30.17 in 10.0 mi SSE 15.0 mph - N/A   Overcast
8:15 AM 39.6 °F 32.1 °F 33.3 °F 78% 30.16 in 10.0 mi SSE 12.7 mph - N/A Rain Light Rain
8:35 AM 39.7 °F 34.3 °F 34.0 °F 80% 30.14 in 10.0 mi SSE 8.1 mph - N/A Rain Light Rain
8:55 AM 39.6 °F 33.0 °F 34.5 °F 82% 30.14 in 10.0 mi SSE 10.4 mph - 0.01 in Rain Light Rain
9:15 AM 40.1 °F 33.6 °F 35.1 °F 82% 30.14 in 10.0 mi South 10.4 mph - N/A Rain Light Rain
9:35 AM 40.8 °F 35.0 °F 36.0 °F 83% 30.14 in 10.0 mi South 9.2 mph - 0.01 in Rain Light Rain
9:55 AM 41.4 °F 35.2 °F 36.3 °F 82% 30.13 in 10.0 mi SSE 10.4 mph - 0.01 in Rain Light Rain
10:15 AM 41.7 °F 34.8 °F 36.5 °F 82% 30.11 in 10.0 mi SSE 12.7 mph 17.3 mph N/A Rain Light Rain
10:35 AM 42.3 °F 35.1 °F 36.7 °F 81% 30.10 in 10.0 mi SSE 13.8 mph - N/A   Overcast
10:55 AM 42.8 °F 37.0 °F 37.4 °F 81% 30.08 in 10.0 mi SE 10.4 mph - 0.01 in Rain Light Rain
11:15 AM 44.2 °F 37.3 °F 37.0 °F 76% 30.07 in 10.0 mi SSE 15.0 mph 23.0 mph N/A   Mostly Cloudy
11:35 AM 45.0 °F 38.9 °F 37.2 °F 74% 30.06 in 10.0 mi SSE 12.7 mph 20.7 mph N/A   Overcast
11:55 AM 45.5 °F 38.9 °F 37.6 °F 74% 30.05 in 10.0 mi SSE 15.0 mph - N/A   Overcast
12:15 PM 45.5 °F 39.9 °F 37.8 °F 74% 30.04 in 10.0 mi SSE 11.5 mph - N/A Rain Light Rain
12:35 PM 46.6 °F - 38.7 °F 74% 30.03 in 10.0 mi South 11.5 mph 18.4 mph N/A   Overcast
12:55 PM 46.4 °F 41.1 °F 39.0 °F 75% 30.01 in 10.0 mi SSE 11.5 mph 19.6 mph N/A Rain Rain
1:15 PM 46.2 °F 39.5 °F 38.1 °F 73% 29.99 in 10.0 mi SSE 16.1 mph 19.6 mph N/A   Overcast
1:35 PM 46.0 °F 39.9 °F 38.8 °F 76% 29.98 in 10.0 mi SSE 13.8 mph 18.4 mph N/A   Overcast
1:55 PM 46.0 °F 39.9 °F 38.8 °F 76% 29.96 in 10.0 mi SE 13.8 mph 19.6 mph N/A   Overcast
2:15 PM 46.4 °F 41.1 °F 39.4 °F 77% 29.94 in 10.0 mi SE 11.5 mph 19.6 mph N/A   Overcast
2:35 PM 48.2 °F - 40.5 °F 75% 29.93 in 10.0 mi SE 13.8 mph 19.6 mph N/A   Overcast
2:55 PM 49.8 °F - 41.5 °F 73% 29.92 in 10.0 mi SE 16.1 mph 20.7 mph N/A   Scattered Clouds
3:15 PM 52.2 °F - 41.5 °F 67% 29.91 in 10.0 mi SSE 15.0 mph 25.3 mph N/A   Clear
3:35 PM 52.7 °F - 42.1 °F 67% 29.89 in 10.0 mi SE 16.1 mph 24.2 mph N/A   Clear
3:55 PM 53.6 °F - 42.6 °F 66% 29.87 in 10.0 mi SE 15.0 mph 21.9 mph N/A   Clear
4:15 PM 54.5 °F - 42.8 °F 65% 29.86 in 10.0 mi SSE 15.0 mph 26.5 mph N/A   Clear
4:35 PM 54.1 °F - 42.6 °F 65% 29.86 in 10.0 mi SSE 13.8 mph 23.0 mph N/A   Clear
4:55 PM 53.6 °F - 42.1 °F 65% 29.87 in 10.0 mi SSE 13.8 mph 24.2 mph N/A   Clear
5:15 PM 54.0 °F - 42.4 °F 65% 29.87 in 10.0 mi SSE 13.8 mph 19.6 mph N/A   Clear
5:35 PM 53.4 °F - 42.4 °F 66% 29.87 in 10.0 mi SSE 12.7 mph - N/A   Clear
5:55 PM 52.2 °F - 41.9 °F 68% 29.87 in 10.0 mi SSE 12.7 mph - N/A   Clear
6:15 PM 50.9 °F - 42.1 °F 72% 29.86 in 10.0 mi SSE 12.7 mph - N/A   Clear
6:35 PM 50.4 °F - 42.1 °F 73% 29.86 in 10.0 mi SE 9.2 mph - N/A   Scattered Clouds
6:55 PM 50.4 °F - 41.5 °F 72% 29.86 in 10.0 mi SE 8.1 mph - N/A   Mostly Cloudy
7:15 PM 49.8 °F - 41.4 °F 73% 29.86 in 10.0 mi SSE 5.8 mph - N/A   Mostly Cloudy
7:35 PM 49.6 °F - 41.2 °F 73% 29.86 in 10.0 mi SSE 9.2 mph - N/A   Overcast
7:55 PM 50.4 °F - 41.0 °F 70% 29.85 in 10.0 mi SSE 11.5 mph 17.3 mph N/A   Overcast
8:15 PM 51.6 °F - 40.3 °F 65% 29.84 in 10.0 mi SSE 16.1 mph 20.7 mph N/A   Overcast
8:35 PM 51.8 °F - 39.9 °F 64% 29.83 in 10.0 mi SSE 13.8 mph 20.7 mph N/A   Overcast
8:55 PM 52.0 °F - 39.6 °F 63% 29.83 in 10.0 mi SSE 17.3 mph 23.0 mph N/A   Mostly Cloudy
9:15 PM 51.8 °F - 39.4 °F 63% 29.84 in 10.0 mi South 11.5 mph 19.6 mph N/A   Overcast
9:35 PM 51.8 °F - 39.0 °F 62% 29.83 in 10.0 mi South 11.5 mph 19.6 mph N/A   Scattered Clouds
9:55 PM 50.9 °F - 39.2 °F 64% 29.82 in 10.0 mi SSE 12.7 mph - N/A   Clear
10:15 PM 51.4 °F - 39.2 °F 63% 29.83 in 10.0 mi South 10.4 mph - N/A   Scattered Clouds
10:35 PM 51.4 °F - 39.6 °F 64% 29.82 in 10.0 mi South 8.1 mph - N/A Rain Light Rain
10:55 PM 52.2 °F - 39.2 °F 61% 29.81 in 10.0 mi South 11.5 mph 17.3 mph N/A Rain Rain
11:15 PM 52.0 °F - 39.2 °F 62% 29.80 in 10.0 mi South 13.8 mph - N/A   Overcast
11:35 PM 51.8 °F - 39.0 °F 62% 29.79 in 10.0 mi South 13.8 mph 19.6 mph N/A   Overcast
11:55 PM 51.3 °F - 39.6 °F 64% 29.79 in 10.0 mi South 15.0 mph - N/A Rain , Thunderstorm Light Thunderstorms and Rain